Location: Coopersdale
(40.3556°N, 78.9372°W)
Time: 00:57:46
(UTC+00:00)

Transit 4A - Pass Details

Date: 29 January 2021
Orbit: 867 x 978 km, 66.8° (Epoch: 07 March)

Event Time Altitude Azimuth Distance (km) Brightness Sun altitude
Rises 08:27:42 0° 328° (NNW) 3,608 - -45.6°
Reaches altitude 10° 08:30:17 10° 326° (NW) 2,644 - -45.1°
Maximum altitude 08:36:22 68° 245° (WSW) 976 - -44.0°
Drops below altitude 10° 08:42:14 10° 163° (SSE) 2,552 - -42.9°
Sets 08:44:41 0° 161° (SSE) 3,474 - -42.4°
